Weather History for Dayton, OH

Change the Weather History Date:

Saturday, November 29, 2014

  Actual Average Record
Temperature  
Mean Temperature 44 °F 37 °F  
Max Temperature 56 °F 44 °F 70 °F (1927)
Min Temperature 32 °F 30 °F 2 °F (1958)
Degree Days  
Heating Degree Days 21 28  
Month to date heating degree days 807 635  
Since 1 July heating degree days 1211 1082  
Cooling Degree Days 0 0  
Month to date cooling degree days 0 0  
Year to date cooling degree days 977 891  
Moisture  
Dew Point 33 °F    
Average Humidity 61    
Maximum Humidity 72    
Minimum Humidity 49    
Precipitation  
Precipitation 0.00 in 0.11 in 0.65 in (2011)
Month to date precipitation 1.94 3.28  
Year to date precipitation 33.09 37.82  
Snow  
Snow 0.00 in 0.10 in 3.20 in (1952)
Month to date snowfall 4.1 0.6  
Since 1 July snowfall 4.1 1.0  
Since 1 September snowfall 4.1 1.0  
Snow Depth 0.00 in    
Sea Level Pressure  
Sea Level Pressure 29.93 in    
Wind  
Wind Speed 15 mph (SSW)    
Max Wind Speed 25 mph    
Max Gust Speed 35 mph    
Visibility 10 miles    
Events      
T = Trace of Precipitation, MM = Missing Value Source: NWS Daily Summary

Daily Weather History Graph

Daily Weather History Graph

Search for Another Location

Airport:

Trip Planner

Search our weather history database for the weather conditions in past years. The results will help you decide how hot, cold, wet, or windy it might be!

Date:

Astronomy

Nov. 29, 2014 Rise Set
Actual Time 7:37 AM EST 5:12 PM EST
Civil Twilight 7:07 AM EST 5:42 PM EST
Nautical Twilight 6:33 AM EST 6:16 PM EST
Astronomical Twilight 6:01 AM EST 6:48 PM EST
Moon 1:06 PM EST (11/29) 12:00 AM EST (11/29)
Length of Visible Light 10h 35m
Length of Day
9h 35m
First Quarter, 53% of the Moon is Illuminated
Nov 29
First Quarter
Dec 6
Full
Dec 14
Last Quarter
Dec 21
New
Dec 28
First Quarter

Hourly Weather History & Observations

Time (EST) Temp. Windchill Dew Point Humidity Pressure Visibility Wind Dir Wind Speed Gust Speed Precip Events Conditions
12:56 AM 32.0 °F 23.0 °F 19.9 °F 61% 30.08 in 10.0 mi SSE 11.5 mph - N/A   Mostly Cloudy
1:56 AM 32.0 °F 23.0 °F 19.9 °F 61% 30.07 in 10.0 mi South 11.5 mph - N/A   Mostly Cloudy
2:56 AM 33.1 °F 23.9 °F 19.0 °F 56% 30.08 in 10.0 mi South 12.7 mph - N/A   Mostly Cloudy
3:56 AM 34.0 °F 25.0 °F 19.9 °F 56% 30.06 in 10.0 mi South 12.7 mph - N/A   Mostly Cloudy
4:56 AM 36.0 °F 27.5 °F 21.0 °F 55% 30.03 in 10.0 mi South 12.7 mph - N/A   Mostly Cloudy
5:56 AM 37.0 °F 29.3 °F 21.0 °F 52% 30.02 in 10.0 mi South 11.5 mph - N/A   Mostly Cloudy
6:56 AM 36.0 °F 28.0 °F 21.9 °F 57% 30.01 in 10.0 mi South 11.5 mph - N/A   Mostly Cloudy
7:56 AM 37.0 °F 29.3 °F 21.9 °F 54% 30.00 in 10.0 mi South 11.5 mph - N/A   Mostly Cloudy
8:56 AM 39.0 °F 31.8 °F 23.0 °F 53% 30.00 in 10.0 mi South 11.5 mph - N/A   Mostly Cloudy
9:56 AM 42.1 °F 34.2 °F 25.0 °F 51% 29.98 in 10.0 mi South 16.1 mph 23.0 mph N/A   Mostly Cloudy
10:56 AM 45.0 °F 38.2 °F 28.0 °F 52% 29.97 in 10.0 mi SSW 15.0 mph 23.0 mph N/A   Mostly Cloudy
11:56 AM 46.9 °F - 30.9 °F 54% 29.94 in 10.0 mi SSW 12.7 mph - N/A   Mostly Cloudy
12:07 PM 46.9 °F - 32.0 °F 56% 29.92 in 10.0 mi SSW 13.8 mph - N/A   Overcast
12:45 PM 48.0 °F - 35.1 °F 61% 29.90 in 10.0 mi SSW 17.3 mph 24.2 mph N/A   Overcast
12:52 PM 48.2 °F - 35.6 °F 62% 29.90 in 10.0 mi SSW 19.6 mph 28.8 mph N/A   Overcast
12:56 PM 48.9 °F - 36.0 °F 61% 29.91 in 10.0 mi SSW 19.6 mph 28.8 mph N/A   Overcast
1:32 PM 51.1 °F - 37.0 °F 59% 29.87 in 10.0 mi South 15.0 mph 21.9 mph N/A   Mostly Cloudy
1:56 PM 51.1 °F - 37.0 °F 59% 29.87 in 10.0 mi SSW 17.3 mph 26.5 mph N/A   Mostly Cloudy
2:56 PM 53.1 °F - 39.0 °F 59% 29.86 in 10.0 mi SSW 19.6 mph 26.5 mph N/A   Scattered Clouds
3:27 PM 52.0 °F - 39.9 °F 63% 29.84 in 10.0 mi SSW 25.3 mph 34.5 mph N/A   Mostly Cloudy
3:56 PM 50.0 °F - 39.9 °F 68% 29.86 in 10.0 mi SSW 16.1 mph 28.8 mph N/A   Overcast
4:56 PM 50.0 °F - 41.0 °F 71% 29.85 in 10.0 mi SSW 18.4 mph 25.3 mph N/A   Overcast
5:56 PM 51.1 °F - 41.0 °F 68% 29.86 in 10.0 mi SSW 16.1 mph - N/A   Overcast
6:56 PM 52.0 °F - 42.1 °F 69% 29.86 in 10.0 mi SSW 18.4 mph 26.5 mph N/A   Overcast
7:56 PM 53.1 °F - 45.0 °F 74% 29.86 in 10.0 mi SSW 16.1 mph - N/A   Overcast
8:56 PM 54.0 °F - 45.0 °F 72% 29.86 in 10.0 mi SSW 18.4 mph 26.5 mph N/A   Overcast
9:12 PM 54.0 °F - 45.0 °F 72% 29.85 in 10.0 mi SSW 19.6 mph 26.5 mph N/A   Overcast
9:56 PM 54.0 °F - 45.0 °F 72% 29.86 in 10.0 mi SSW 18.4 mph 26.5 mph N/A   Overcast
10:56 PM 55.0 °F - 46.0 °F 72% 29.86 in 10.0 mi SSW 16.1 mph 27.6 mph N/A   Overcast
11:08 PM 55.0 °F - 46.0 °F 72% 29.85 in 10.0 mi SSW 17.3 mph - N/A   Overcast
11:56 PM 55.9 °F - 46.9 °F 72% 29.86 in 10.0 mi SSW 19.6 mph 31.1 mph N/A   Overcast